Погода в Осечне

Чехия     50°41′46″N   14°54′55″E
темп.,
°C
ветер,
м/с
пор.,
м/с
влажн.,
%
обл.,
%
осадки,
мм/ч
давл.,
гПа
погр.,
м
6 мая, чт
чт623:00+3з3118217 0.1 1010798
02:000ююв2295100 0.1 101135
05:00−1ююв249946 0.0 1011100
08:00+4ююз368278 0.0 1011639
11:00+7юз5861100 0.4 10101703
14:00+9зюз6105698 1.3 10092080
17:00+9юз4867100 0.4 10071434
20:00+5ююз2284100 0.8 100739
7 мая, пт
пт723:00+5ю3898100 1.7 1006931
02:00+5ю2999100 7.2 10031169
05:00+6юз1899100 2.7 10021111
08:00+5з5109398 3.1 10051021
11:00+4з41096100 0.5 10081086
14:00+7зсз7117675 1.3 10101679
17:00+6зсз7137889 1.3 10121490
20:00+2сз41087100 1.6 1016982
8 мая, сб
сб823:00−1зюз11955 0.0 101911
02:00−1ю11955 0.0 101913
05:00−1ююв11955 0.0 102018
08:00+5з16715 0.0 1021520
11:00+9з474770 0.1 10202025
14:00+11з464289 0.6 10192360
17:00+12сз134772 0.3 10191510
20:00+7вюв2271100 0.3 101930
9 мая, вс
вс923:00+5юв3978100 0.0 1019190
02:00+5юв4127423 0.0 1019347
05:00+4юв4107914 0.0 1018217
08:00+9ююв486353 0.0 1017334
11:00+14ююв69525 0.0 1015669
14:00+18ююв795026 0.0 1014914
17:00+18ююв7105552 0.0 1013914
20:00+13юв71468100 0.0 1013700
10 мая, пн
пн1023:00+11юв7157276 0.0 1014637
02:00+10юв7167077 0.0 1013656
05:00+9юв61470100 0.0 1012586
08:00+11юв612713 0.0 1012618
11:00+15ююв68610 0.0 1012809
14:00+19ююв68550 0.0 1010990
17:00+20ююв69570 0.0 10101116
20:00+16ююв512777 0.0 1008786